Starlink 30381

operational
NORAD ID: 57785 Int'l Des: 2023-134 Owner: SPXS Country: US Constellation: starlink
LEOCIRCULAR

About Starlink 30381

Description loading...

Live Position

Loading 3D Globe...

Upcoming Passes

Altitude History

Altitude vs Time

uPlot chart will show altitude changes over time

Two-Line Element Set

1 57785U 23134Q 25307.96856198 .00000014 00000-0 16109-4 0 9990
2 57785 43.0027 160.1936 0001242 265.2543 94.8158 15.02536882120561
Epoch: Nov 3, 2025 • Age: 16 hours

Current Status

Altitude 563.2 km
Velocity 7.58 km/s
Sub-Earth Point -20.44°S, 136.89°W
Launch Date Sep 4, 2023
Age 2.1 years
Type internet

Technical Details

Classification Payload
Mass 730.00 kg
Dry Mass 700.00 kg
Total Mass 730.00 kg
Length 0.30 m
Diameter 4.10 m
Span 29.00 m
Shape Box + pan
Manufacturer SPXS
Bus Type Starlink V2M
Phase Status In Orbit
Owner/State SPXS/US

Large Constellations

Loading constellations...